Tracking 28766 objects as of 14-Apr-2024
HD Live streaming from Space Station
objects crossing your sky now

STARLINK-2197

Track STARLINK-2197 now!
10-day predictions
STARLINK-2197 is classified as:


NORAD ID: 47774
Int'l Code: 2021-017BE
Perigee: 553.4 km
Apogee: 555.4 km
Inclination: 53.1 °
Period: 95.6 minutes
Semi major axis: 6925 km
RCS: Unknown
Launch date: March 4, 2021
Source: United States (US)
Launch site: AIR FORCE EASTERN TEST RANGE (AFETR)
Your satellite tracking list
Your tracking list is empty




NASA's NSSDC Master Catalog

Two Line Element Set (TLE):
1 47774U 21017BE  24104.23317258  .00000618  00000-0  60412-4 0  9994
2 47774  53.0548 103.6451 0001415  92.9638 267.1513 15.06391618172773
Source of the keplerian elements: AFSPC